| time (UTC) | temp C | wind direction | speed KPH | gust KPH | rain 1hr cm | rain 24hr cm | rain mn cm | humidity % | barometer mb |
| 20260508125540 | 18 | 207 | 9.7 | 25.7 | 0.00 | 0.00 | 0.00 | 45 | 1010.8 |
| 20260508125055 | 18 | 214 | 16.1 | 35.4 | 0.00 | 0.00 | 0.00 | 46 | 1010.9 |
| 20260508124605 | 18 | 219 | 16.1 | 35.4 | 0.00 | 0.00 | 0.00 | 47 | 1010.9 |
| 20260508124021 | 18 | 195 | 14.5 | 30.6 | 0.00 | 0.00 | 0.00 | 48 | 1010.9 |
| 20260508123543 | 17 | 246 | 17.7 | 32.2 | 0.00 | 0.00 | 0.00 | 48 | 1010.9 |
| 20260508123045 | 17 | 208 | 20.9 | 32.2 | 0.00 | 0.00 | 0.00 | 46 | 1010.9 |
| 20260508122554 | 18 | 234 | 17.7 | 25.7 | 0.00 | 0.00 | 0.00 | 47 | 1011.1 |
| 20260508122031 | 17 | 191 | 14.5 | 35.4 | 0.00 | 0.00 | 0.00 | 47 | 1011.1 |
| 20260508121538 | 17 | 240 | 24.1 | 35.4 | 0.00 | 0.00 | 0.00 | 46 | 1011.0 |
| 20260508121043 | 17 | 247 | 17.7 | 30.6 | 0.00 | 0.00 | 0.00 | 48 | 1011.1 |
| 20260508120556 | 17 | 213 | 14.5 | 30.6 | 0.00 | 0.00 | 0.00 | 48 | 1011.1 |
| 20260508120104 | 18 | 273 | 16.1 | 27.4 | 0.00 | 0.00 | 0.00 | 47 | 1011.0 |
| 20260508115528 | 17 | 214 | 14.5 | 30.6 | 0.00 | 0.00 | 0.00 | 48 | 1011.1 |
| 20260508115019 | 17 | 218 | 16.1 | 30.6 | 0.00 | 0.00 | 0.00 | 49 | 1011.2 |
| 20260508114534 | 17 | 210 | 14.5 | 30.6 | 0.00 | 0.00 | 0.00 | 51 | 1011.3 |
| 20260508114033 | 17 | 210 | 17.7 | 30.6 | 0.00 | 0.00 | 0.00 | 53 | 1011.5 |
| 20260508113543 | 17 | 269 | 20.9 | 32.2 | 0.00 | 0.00 | 0.00 | 53 | 1011.5 |
| 20260508113021 | 17 | 229 | 8.0 | 32.2 | 0.00 | 0.00 | 0.00 | 54 | 1011.6 |
| 20260508112542 | 16 | 241 | 9.7 | 20.9 | 0.00 | 0.00 | 0.00 | 56 | 1011.7 |
| 20260508112129 | 16 | 219 | 9.7 | 24.1 | 0.00 | 0.00 | 0.00 | 57 | 1010.1 |
| 20260508111542 | 16 | 260 | 17.7 | 24.1 | 0.00 | 0.00 | 0.00 | 56 | 1011.8 |
| 20260508111041 | 16 | 285 | 11.3 | 24.1 | 0.00 | 0.00 | 0.00 | 56 | 1011.8 |
| 20260508110521 | 16 | 238 | 12.9 | 24.1 | 0.00 | 0.00 | 0.00 | 57 | 1011.8 |
| 20260508110048 | 16 | 240 | 16.1 | 24.1 | 0.00 | 0.00 | 0.00 | 57 | 1011.8 |
| 20260508105523 | 16 | 257 | 9.7 | 24.1 | 0.00 | 0.00 | 0.00 | 57 | 1011.7 |
| 20260508105019 | 16 | 245 | 12.9 | 22.5 | 0.00 | 0.00 | 0.00 | 57 | 1011.7 |
| 20260508104536 | 16 | 264 | 11.3 | 16.1 | 0.00 | 0.00 | 0.00 | 58 | 1011.7 |
| 20260508104018 | 16 | 263 | 8.0 | 17.7 | 0.00 | 0.00 | 0.00 | 59 | 1011.8 |
| 20260508103525 | 16 | 198 | 16.1 | 22.5 | 0.00 | 0.00 | 0.00 | 58 | 1011.9 |
| 20260508103029 | 16 | 241 | 11.3 | 24.1 | 0.00 | 0.00 | 0.00 | 59 | 1012.0 |
| 20260508102646 | 16 | 228 | 14.5 | 24.1 | 0.00 | 0.00 | 0.00 | 58 | 1010.3 |
| 20260508102031 | 16 | 248 | 9.7 | 20.9 | 0.00 | 0.00 | 0.00 | 59 | 1011.9 |
| 20260508101557 | 16 | 248 | 3.2 | 19.3 | 0.00 | 0.00 | 0.00 | 61 | 1011.9 |
| 20260508101031 | 16 | 259 | 11.3 | 19.3 | 0.00 | 0.00 | 0.00 | 61 | 1011.9 |
| 20260508100519 | 16 | 270 | 8.0 | 14.5 | 0.00 | 0.00 | 0.00 | 62 | 1011.8 |
| 20260508100111 | 16 | 275 | 6.4 | 14.5 | 0.00 | 0.00 | 0.00 | 63 | 1011.8 |
| 20260508095525 | 16 | 240 | 6.4 | 20.9 | 0.00 | 0.00 | 0.00 | 65 | 1011.8 |
| 20260508095043 | 16 | 291 | 11.3 | 20.9 | 0.00 | 0.00 | 0.00 | 62 | 1011.7 |
| 20260508094543 | 17 | 286 | 14.5 | 20.9 | 0.00 | 0.00 | 0.00 | 61 | 1011.7 |
| 20260508094043 | 17 | 217 | 12.9 | 20.9 | 0.00 | 0.00 | 0.00 | 58 | 1011.6 |
| 20260508093038 | 16 | 188 | 9.7 | 20.9 | 0.00 | 0.00 | 0.00 | 60 | 1011.6 |
| 20260508092521 | 16 | 223 | 8.0 | 24.1 | 0.00 | 0.00 | 0.00 | 60 | 1011.6 |
| 20260508092028 | 16 | 245 | 17.7 | 24.1 | 0.00 | 0.00 | 0.00 | 62 | 1011.6 |
| 20260508091520 | 16 | 201 | 9.7 | 22.5 | 0.00 | 0.00 | 0.00 | 62 | 1011.6 |
| 20260508091044 | 16 | 210 | 16.1 | 22.5 | 0.00 | 0.00 | 0.00 | 63 | 1011.5 |
| 20260508090544 | 15 | 114 | 6.4 | 20.9 | 0.00 | 0.00 | 0.00 | 64 | 1011.5 |
| 20260508090100 | 15 | 207 | 17.7 | 20.9 | 0.00 | 0.00 | 0.00 | 63 | 1011.6 |
| 20260508085534 | 15 | 320 | 0.0 | 8.0 | 0.00 | 0.00 | 0.00 | 68 | 1011.7 |
| 20260508085039 | 15 | 266 | 3.2 | 8.0 | 0.00 | 0.00 | 0.00 | 68 | 1011.7 |
| 20260508084603 | 15 | 156 | 1.6 | 8.0 | 0.00 | 0.00 | 0.00 | 69 | 1011.7 |
| 20260508084032 | 15 | 187 | 1.6 | 6.4 | 0.00 | 0.00 | 0.00 | 70 | 1011.7 |
| 20260508083520 | 15 | 127 | 3.2 | 6.4 | 0.00 | 0.00 | 0.00 | 70 | 1011.6 |
| 20260508083032 | 15 | 73 | 0.0 | 6.4 | 0.00 | 0.00 | 0.00 | 70 | 1011.5 |
| 20260508082541 | 15 | 176 | 3.2 | 8.0 | 0.00 | 0.00 | 0.00 | 69 | 1011.5 |
| 20260508082040 | 15 | 152 | 3.2 | 8.0 | 0.00 | 0.00 | 0.00 | 67 | 1011.5 |
| 20260508081544 | 15 | 93 | 0.0 | 4.8 | 0.00 | 0.00 | 0.00 | 68 | 1011.4 |
| 20260508081036 | 15 | 127 | 1.6 | 4.8 | 0.00 | 0.00 | 0.00 | 67 | 1011.5 |
| 20260508080605 | 15 | 141 | 0.0 | 1.6 | 0.00 | 0.00 | 0.00 | 71 | 1011.5 |
| 20260508075540 | 15 | 124 | 0.0 | 1.6 | 0.00 | 0.00 | 0.00 | 73 | 1011.6 |
| 20260508075028 | 14 | 151 | 0.0 | 3.2 | 0.00 | 0.00 | 0.00 | 74 | 1011.6 |
| 20260508074545 | 14 | 106 | 1.6 | 3.2 | 0.00 | 0.00 | 0.00 | 76 | 1011.6 |
| 20260508073518 | 13 | 80 | 0.0 | 6.4 | 0.00 | 0.00 | 0.00 | 79 | 1011.6 |
| 20260508073026 | 13 | 87 | 0.0 | 6.4 | 0.00 | 0.00 | 0.00 | 79 | 1011.5 |
| 20260508072602 | 13 | 70 | 0.0 | 6.4 | 0.00 | 0.00 | 0.00 | 79 | 1011.5 |
| 20260508072039 | 13 | 69 | 0.0 | 6.4 | 0.00 | 0.00 | 0.00 | 79 | 1011.4 |
| 20260508071534 | 13 | 248 | 0.0 | 3.2 | 0.00 | 0.00 | 0.00 | 80 | 1011.4 |
| 20260508071108 | 13 | 296 | 1.6 | 4.8 | 0.00 | 0.00 | 0.00 | 80 | 1011.4 |
| 20260508070615 | 13 | 62 | 0.0 | 4.8 | 0.00 | 0.00 | 0.00 | 81 | 1009.9 |
| 20260508070126 | 13 | 321 | 0.0 | 0.0 | 0.00 | 0.00 | 0.00 | 81 | 1011.4 |
| 20260508065524 | 13 | 89 | 0.0 | 3.2 | 0.00 | 0.00 | 0.00 | 82 | 1011.3 |
| 20260508065113 | 12 | 70 | 1.6 | 3.2 | 0.00 | 0.00 | 0.00 | 84 | 1009.7 |
| 20260508064543 | 12 | 348 | 0.0 | 4.8 | 0.00 | 0.00 | 0.00 | 86 | 1011.2 |
| 20260508064022 | 11 | 67 | 1.6 | 4.8 | 0.00 | 0.00 | 0.00 | 87 | 1011.2 |
| 20260508063534 | 11 | 74 | 0.0 | 1.6 | 0.00 | 0.00 | 0.00 | 87 | 1011.2 |
| 20260508063041 | 11 | 68 | 0.0 | 1.6 | 0.00 | 0.00 | 0.00 | 87 | 1011.3 |
| 20260508062530 | 11 | 139 | 0.0 | 1.6 | 0.00 | 0.00 | 0.00 | 87 | 1011.2 |
| 20260508062046 | 11 | 113 | 0.0 | 1.6 | 0.00 | 0.00 | 0.00 | 88 | 1011.3 |
| 20260508061523 | 11 | 143 | 0.0 | 0.0 | 0.00 | 0.00 | 0.00 | 88 | 1011.3 |
| 20260508061022 | 11 | 141 | 0.0 | 0.0 | 0.00 | 0.00 | 0.00 | 88 | 1011.3 |
| 20260508060525 | 10 | 141 | 0.0 | 1.6 | 0.00 | 0.00 | 0.00 | 89 | 1011.3 |
| 20260508060105 | 11 | 148 | 0.0 | 1.6 | 0.00 | 0.00 | 0.00 | 89 | 1011.3 |
| 20260508055617 | 10 | 75 | 0.0 | 4.8 | 0.00 | 0.00 | 0.00 | 89 | 1009.5 |
| 20260508055022 | 10 | 86 | 1.6 | 4.8 | 0.00 | 0.00 | 0.00 | 89 | 1010.9 |
| 20260508054543 | 10 | 72 | 3.2 | 3.2 | 0.00 | 0.00 | 0.00 | 89 | 1011.0 |
| 20260508054045 | 10 | 72 | 0.0 | 3.2 | 0.00 | 0.00 | 0.00 | 89 | 1011.1 |
| 20260508053540 | 10 | 77 | 3.2 | 3.2 | 0.00 | 0.00 | 0.00 | 89 | 1011.2 |
| 20260508053018 | 10 | 63 | 0.0 | 3.2 | 0.00 | 0.00 | 0.00 | 89 | 1011.2 |
| 20260508052532 | 10 | 62 | 0.0 | 4.8 | 0.00 | 0.00 | 0.00 | 89 | 1011.1 |
| 20260508052132 | 10 | 80 | 1.6 | 4.8 | 0.00 | 0.00 | 0.00 | 89 | 1009.4 |
| 20260508051528 | 10 | 77 | 3.2 | 4.8 | 0.00 | 0.00 | 0.00 | 88 | 1011.0 |
| 20260508051026 | 10 | 60 | 3.2 | 4.8 | 0.00 | 0.00 | 0.00 | 89 | 1011.0 |
| 20260508050552 | 10 | 24 | 0.0 | 0.0 | 0.00 | 0.00 | 0.00 | 89 | 1010.9 |
| 20260508050123 | 10 | 248 | 0.0 | 0.0 | 0.00 | 0.00 | 0.00 | 89 | 1010.9 |
| 20260508045525 | 10 | 248 | 0.0 | 0.0 | 0.00 | 0.00 | 0.00 | 89 | 1010.9 |
| 20260508045030 | 10 | 216 | 0.0 | 0.0 | 0.00 | 0.00 | 0.00 | 89 | 1010.9 |
| 20260508044518 | 10 | 320 | 0.0 | 0.0 | 0.00 | 0.00 | 0.00 | 89 | 1010.9 |
| 20260508044043 | 10 | 320 | 0.0 | 0.0 | 0.00 | 0.00 | 0.00 | 89 | 1010.7 |
| 20260508043524 | 10 | 321 | 0.0 | 3.2 | 0.00 | 0.00 | 0.00 | 89 | 1010.8 |
| 20260508043112 | 10 | 321 | 1.6 | 3.2 | 0.00 | 0.00 | 0.00 | 89 | 1009.2 |
| 20260508042602 | 10 | 283 | 1.6 | 3.2 | 0.00 | 0.00 | 0.00 | 88 | 1011.0 |
| 20260508042028 | 10 | 285 | 0.0 | 1.6 | 0.00 | 0.00 | 0.00 | 89 | 1010.8 |
| 20260508041521 | 10 | 287 | 0.0 | 0.0 | 0.00 | 0.00 | 0.00 | 89 | 1010.8 |
| 20260508041030 | 10 | 302 | 0.0 | 0.0 | 0.00 | 0.00 | 0.00 | 90 | 1010.7 |
| 20260508040549 | 10 | 6 | 0.0 | 0.0 | 0.00 | 0.00 | 0.00 | 90 | 1010.6 |
| 20260508040054 | 10 | 76 | 0.0 | 3.2 | 0.00 | 0.00 | 0.00 | 90 | 1010.5 |
| 20260508035122 | 10 | 68 | 1.6 | 4.8 | 0.00 | 0.00 | 0.00 | 90 | 1008.9 |
| 20260508034039 | 10 | 332 | 0.0 | 3.2 | 0.00 | 0.00 | 0.00 | 90 | 1010.5 |
| 20260508033558 | 10 | 98 | 0.0 | 4.8 | 0.00 | 0.00 | 0.00 | 90 | 1010.5 |
| 20260508033023 | 10 | 65 | 1.6 | 6.4 | 0.00 | 0.00 | 0.00 | 90 | 1010.5 |
| 20260508032529 | 10 | 88 | 0.0 | 6.4 | 0.00 | 0.00 | 0.00 | 90 | 1010.5 |
| 20260508032024 | 10 | 104 | 3.2 | 6.4 | 0.00 | 0.00 | 0.00 | 90 | 1010.6 |
| 20260508031553 | 10 | 55 | 3.2 | 4.8 | 0.00 | 0.00 | 0.00 | 89 | 1010.6 |
| 20260508031030 | 10 | 77 | 0.0 | 3.2 | 0.00 | 0.00 | 0.00 | 89 | 1010.5 |
| 20260508030531 | 10 | 74 | 0.0 | 4.8 | 0.00 | 0.00 | 0.00 | 89 | 1010.5 |
| 20260508030046 | 10 | 60 | 0.0 | 4.8 | 0.00 | 0.00 | 0.00 | 89 | 1010.6 |
| 20260508025535 | 10 | 57 | 3.2 | 4.8 | 0.00 | 0.00 | 0.00 | 89 | 1010.6 |
| 20260508025039 | 10 | 69 | 1.6 | 4.8 | 0.00 | 0.00 | 0.00 | 89 | 1010.5 |
| 20260508024627 | 10 | 90 | 0.0 | 1.6 | 0.00 | 0.00 | 0.00 | 89 | 1008.8 |
| 20260508024022 | 10 | 74 | 0.0 | 0.0 | 0.00 | 0.00 | 0.00 | 89 | 1010.3 |
| 20260508023527 | 10 | 75 | 0.0 | 1.6 | 0.00 | 0.00 | 0.00 | 89 | 1010.4 |
| 20260508023110 | 10 | 114 | 0.0 | 8.0 | 0.00 | 0.00 | 0.00 | 90 | 1008.9 |
| 20260508022606 | 10 | 75 | 3.2 | 8.0 | 0.00 | 0.00 | 0.00 | 89 | 1008.9 |
| 20260508022037 | 10 | 82 | 3.2 | 8.0 | 0.00 | 0.00 | 0.00 | 89 | 1010.6 |
| 20260508021543 | 10 | 72 | 3.2 | 8.0 | 0.00 | 0.00 | 0.00 | 89 | 1010.5 |
| 20260508021027 | 10 | 75 | 1.6 | 8.0 | 0.00 | 0.00 | 0.00 | 89 | 1010.5 |
| 20260508020519 | 10 | 76 | 3.2 | 6.4 | 0.00 | 0.00 | 0.00 | 89 | 1010.5 |
| 20260508020123 | 10 | 73 | 3.2 | 6.4 | 0.00 | 0.00 | 0.00 | 89 | 1010.5 |
| 20260508015525 | 10 | 68 | 1.6 | 6.4 | 0.00 | 0.00 | 0.00 | 88 | 1010.5 |
| 20260508015047 | 10 | 89 | 3.2 | 6.4 | 0.00 | 0.00 | 0.00 | 88 | 1010.5 |
| 20260508014604 | 10 | 94 | 1.6 | 4.8 | 0.00 | 0.00 | 0.00 | 88 | 1010.4 |
| 20260508014043 | 10 | 68 | 3.2 | 6.4 | 0.00 | 0.00 | 0.00 | 88 | 1010.4 |
| 20260508013519 | 10 | 98 | 1.6 | 6.4 | 0.00 | 0.00 | 0.00 | 88 | 1010.5 |
| 20260508013054 | 10 | 71 | 3.2 | 8.0 | 0.00 | 0.00 | 0.00 | 88 | 1010.7 |
| 20260508012536 | 10 | 96 | 3.2 | 9.7 | 0.00 | 0.00 | 0.00 | 88 | 1010.7 |
| 20260508012028 | 10 | 65 | 6.4 | 9.7 | 0.00 | 0.00 | 0.00 | 88 | 1010.6 |
| 20260508011550 | 10 | 62 | 3.2 | 6.4 | 0.00 | 0.00 | 0.00 | 88 | 1010.6 |
| 20260508011132 | 10 | 64 | 3.2 | 8.0 | 0.00 | 0.00 | 0.00 | 88 | 1009.1 |
| 20260508010528 | 10 | 53 | 3.2 | 8.0 | 0.00 | 0.00 | 0.00 | 88 | 1010.8 |
| 20260508010049 | 10 | 64 | 4.8 | 8.0 | 0.00 | 0.00 | 0.00 | 88 | 1010.8 |
| 20260508005519 | 10 | 77 | 3.2 | 9.7 | 0.00 | 0.00 | 0.00 | 88 | 1010.8 |
| 20260508005132 | 10 | 97 | 6.4 | 9.7 | 0.00 | 0.00 | 0.00 | 88 | 1009.2 |
| 20260508004523 | 10 | 39 | 6.4 | 9.7 | 0.00 | 0.00 | 0.00 | 87 | 1010.9 |
| 20260508004038 | 11 | 84 | 3.2 | 9.7 | 0.00 | 0.00 | 0.00 | 87 | 1011.0 |
| 20260508003522 | 11 | 65 | 4.8 | 11.3 | 0.00 | 0.00 | 0.00 | 86 | 1011.0 |
| 20260508003026 | 11 | 80 | 6.4 | 11.3 | 0.00 | 0.00 | 0.00 | 86 | 1011.1 |
| 20260508002039 | 11 | 63 | 4.8 | 11.3 | 0.00 | 0.00 | 0.00 | 86 | 1011.1 |
| 20260508001640 | 11 | 85 | 8.0 | 11.3 | 0.00 | 0.00 | 0.00 | 86 | 1009.5 |
| 20260508001104 | 11 | 75 | 4.8 | 12.9 | 0.00 | 0.00 | 0.00 | 86 | 1011.2 |
| 20260508000545 | 11 | 72 | 6.4 | 12.9 | 0.00 | 0.00 | 0.00 | 86 | 1011.2 |
| 20260508000043 | 11 | 97 | 8.0 | 14.5 | 0.00 | 0.00 | 0.00 | 85 | 1011.3 |
| 20260507235535 | 11 | 89 | 9.7 | 14.5 | 0.00 | 0.00 | 0.00 | 85 | 1011.2 |
| 20260507235119 | 11 | 65 | 6.4 | 14.5 | 0.00 | 0.00 | 0.00 | 84 | 1009.7 |
| 20260507234530 | 11 | 44 | 4.8 | 12.9 | 0.00 | 0.00 | 0.00 | 84 | 1011.3 |
| 20260507233527 | 11 | 74 | 6.4 | 11.3 | 0.00 | 0.00 | 0.00 | 83 | 1011.5 |
| 20260507233033 | 12 | 72 | 6.4 | 11.3 | 0.00 | 0.00 | 0.00 | 83 | 1011.5 |
| 20260507232523 | 12 | 58 | 6.4 | 14.5 | 0.00 | 0.00 | 0.00 | 82 | 1011.5 |
| 20260507232027 | 12 | 53 | 9.7 | 14.5 | 0.00 | 0.00 | 0.00 | 82 | 1011.5 |
| 20260507231527 | 12 | 69 | 6.4 | 12.9 | 0.00 | 0.00 | 0.00 | 82 | 1011.7 |
| 20260507231023 | 12 | 70 | 9.7 | 12.9 | 0.00 | 0.00 | 0.00 | 81 | 1011.7 |
| 20260507230607 | 12 | 82 | 6.4 | 11.3 | 0.00 | 0.00 | 0.00 | 81 | 1010.2 |
| 20260507230046 | 12 | 78 | 6.4 | 16.1 | 0.00 | 0.00 | 0.00 | 80 | 1011.8 |
| 20260507225545 | 12 | 125 | 8.0 | 16.1 | 0.00 | 0.00 | 0.00 | 80 | 1011.9 |
| 20260507224554 | 12 | 68 | 8.0 | 12.9 | 0.00 | 0.00 | 0.00 | 78 | 1011.9 |
| 20260507224028 | 12 | 100 | 6.4 | 11.3 | 0.00 | 0.00 | 0.00 | 78 | 1011.9 |
| 20260507223543 | 13 | 69 | 6.4 | 20.9 | 0.00 | 0.00 | 0.00 | 77 | 1012.0 |
| 20260507223030 | 13 | 79 | 8.0 | 20.9 | 0.00 | 0.00 | 0.00 | 76 | 1011.9 |
| 20260507222632 | 13 | 34 | 9.7 | 16.1 | 0.00 | 0.00 | 0.00 | 75 | 1010.3 |
| 20260507222033 | 13 | 86 | 12.9 | 16.1 | 0.00 | 0.00 | 0.00 | 73 | 1012.0 |
| 20260507221623 | 13 | 139 | 6.4 | 12.9 | 0.00 | 0.00 | 0.00 | 72 | 1010.4 |
| 20260507221035 | 13 | 102 | 9.7 | 14.5 | 0.00 | 0.00 | 0.00 | 71 | 1012.0 |
| 20260507220530 | 13 | 100 | 8.0 | 14.5 | 0.00 | 0.00 | 0.00 | 71 | 1012.1 |
| 20260507220116 | 13 | 72 | 8.0 | 14.5 | 0.00 | 0.00 | 0.00 | 71 | 1012.0 |
| 20260507215532 | 13 | 98 | 8.0 | 12.9 | 0.00 | 0.00 | 0.00 | 70 | 1012.0 |
| 20260507215019 | 13 | 60 | 8.0 | 16.1 | 0.00 | 0.00 | 0.00 | 70 | 1012.0 |
| 20260507214644 | 13 | 68 | 8.0 | 16.1 | 0.00 | 0.00 | 0.00 | 71 | 1010.3 |
| 20260507214020 | 13 | 89 | 6.4 | 14.5 | 0.00 | 0.00 | 0.00 | 71 | 1011.9 |
| 20260507213523 | 13 | 65 | 6.4 | 16.1 | 0.00 | 0.00 | 0.00 | 72 | 1011.9 |
| 20260507213047 | 13 | 65 | 8.0 | 16.1 | 0.00 | 0.00 | 0.00 | 72 | 1011.9 |
| 20260507212530 | 13 | 50 | 9.7 | 16.1 | 0.00 | 0.00 | 0.00 | 73 | 1011.8 |
| 20260507211535 | 13 | 81 | 6.4 | 16.1 | 0.00 | 0.00 | 0.00 | 75 | 1011.8 |
| 20260507211018 | 13 | 74 | 9.7 | 16.1 | 0.00 | 0.00 | 0.00 | 75 | 1011.6 |
| 20260507210532 | 13 | 58 | 8.0 | 11.3 | 0.00 | 0.00 | 0.00 | 75 | 1011.5 |
| 20260507205542 | 13 | 51 | 11.3 | 17.7 | 0.00 | 0.00 | 0.00 | 74 | 1011.4 |
| 20260507205037 | 13 | 64 | 8.0 | 16.1 | 0.00 | 0.00 | 0.00 | 74 | 1011.3 |
| 20260507204558 | 13 | 104 | 9.7 | 16.1 | 0.00 | 0.00 | 0.00 | 72 | 1011.3 |
| 20260507204044 | 13 | 79 | 6.4 | 12.9 | 0.00 | 0.00 | 0.00 | 72 | 1011.3 |
| 20260507203529 | 14 | 70 | 8.0 | 11.3 | 0.00 | 0.00 | 0.00 | 71 | 1011.2 |
| 20260507203023 | 14 | 114 | 6.4 | 12.9 | 0.00 | 0.00 | 0.00 | 71 | 1011.0 |
| 20260507202643 | 14 | 84 | 4.8 | 12.9 | 0.00 | 0.00 | 0.00 | 70 | 1009.4 |
| 20260507202017 | 14 | 105 | 4.8 | 12.9 | 0.00 | 0.00 | 0.00 | 69 | 1010.8 |
| 20260507201540 | 14 | 76 | 4.8 | 14.5 | 0.00 | 0.00 | 0.00 | 69 | 1010.7 |
| 20260507201128 | 14 | 131 | 6.4 | 14.5 | 0.00 | 0.00 | 0.00 | 69 | 1009.1 |
| 20260507200521 | 15 | 117 | 6.4 | 12.9 | 0.00 | 0.00 | 0.00 | 68 | 1010.6 |
| 20260507200100 | 15 | 110 | 6.4 | 12.9 | 0.00 | 0.00 | 0.00 | 68 | 1010.4 |
| 20260507195535 | 15 | 134 | 9.7 | 16.1 | 0.00 | 0.00 | 0.00 | 68 | 1010.3 |
| 20260507195029 | 15 | 95 | 11.3 | 16.1 | 0.00 | 0.00 | 0.00 | 68 | 1010.4 |
| 20260507194531 | 15 | 105 | 11.3 | 16.1 | 0.00 | 0.00 | 0.00 | 68 | 1010.3 |
| 20260507194029 | 15 | 105 | 8.0 | 12.9 | 0.00 | 0.00 | 0.00 | 68 | 1010.3 |
| 20260507193531 | 15 | 80 | 6.4 | 12.9 | 0.00 | 0.00 | 0.00 | 68 | 1010.3 |
| 20260507193030 | 15 | 79 | 9.7 | 12.9 | 0.00 | 0.00 | 0.00 | 67 | 1010.2 |
| 20260507192559 | 15 | 70 | 6.4 | 11.3 | 0.00 | 0.00 | 0.00 | 66 | 1010.1 |
| 20260507192036 | 15 | 55 | 4.8 | 11.3 | 0.00 | 0.00 | 0.00 | 65 | 1010.0 |
| 20260507191524 | 15 | 40 | 3.2 | 11.3 | 0.00 | 0.00 | 0.00 | 64 | 1010.0 |
| 20260507191041 | 15 | 65 | 3.2 | 19.3 | 0.00 | 0.00 | 0.00 | 64 | 1009.9 |
| 20260507190525 | 15 | 72 | 9.7 | 19.3 | 0.00 | 0.00 | 0.00 | 64 | 1009.7 |
| 20260507190048 | 16 | 129 | 8.0 | 19.3 | 0.00 | 0.00 | 0.00 | 63 | 1009.7 |
| 20260507185609 | 16 | 139 | 14.5 | 35.4 | 0.00 | 0.00 | 0.00 | 62 | 1007.9 |
| 20260507185042 | 16 | 129 | 20.9 | 35.4 | 0.00 | 0.00 | 0.00 | 61 | 1009.5 |
| 20260507184534 | 16 | 132 | 12.9 | 24.1 | 0.00 | 0.00 | 0.00 | 61 | 1009.3 |
| 20260507184107 | 16 | 114 | 11.3 | 20.9 | 0.00 | 0.00 | 0.00 | 61 | 1007.7 |
| 20260507183527 | 16 | 129 | 14.5 | 33.8 | 0.00 | 0.00 | 0.00 | 60 | 1009.2 |
| 20260507183033 | 16 | 133 | 20.9 | 33.8 | 0.00 | 0.00 | 0.00 | 60 | 1009.0 |
| 20260507182540 | 16 | 134 | 22.5 | 33.8 | 0.00 | 0.00 | 0.00 | 60 | 1009.1 |
| 20260507182023 | 16 | 163 | 20.9 | 33.8 | 0.00 | 0.00 | 0.00 | 59 | 1009.1 |
| 20260507181542 | 16 | 136 | 20.9 | 33.8 | 0.00 | 0.00 | 0.00 | 59 | 1008.9 |
| 20260507181019 | 17 | 54 | 17.7 | 32.2 | 0.00 | 0.00 | 0.00 | 59 | 1008.8 |
| 20260507180531 | 17 | 131 | 22.5 | 32.2 | 0.00 | 0.00 | 0.00 | 57 | 1008.7 |
| 20260507180051 | 18 | 114 | 14.5 | 27.4 | 0.00 | 0.00 | 0.00 | 52 | 1008.8 |
| 20260507175526 | 18 | 57 | 9.7 | 16.1 | 0.00 | 0.00 | 0.00 | 48 | 1008.6 |
| 20260507175042 | 18 | 56 | 6.4 | 12.9 | 0.00 | 0.00 | 0.00 | 50 | 1008.5 |
| 20260507174540 | 18 | 129 | 9.7 | 12.9 | 0.00 | 0.00 | 0.00 | 51 | 1008.6 |
| 20260507174049 | 18 | 75 | 6.4 | 16.1 | 0.00 | 0.00 | 0.00 | 51 | 1008.5 |
| 20260507173525 | 18 | 91 | 9.7 | 16.1 | 0.00 | 0.00 | 0.00 | 51 | 1008.6 |
| 20260507173030 | 18 | 91 | 6.4 | 9.7 | 0.00 | 0.00 | 0.00 | 51 | 1008.5 |
| 20260507172607 | 18 | 93 | 9.7 | 11.3 | 0.00 | 0.00 | 0.00 | 50 | 1006.8 |
| 20260507172116 | 18 | 81 | 6.4 | 16.1 | 0.00 | 0.00 | 0.00 | 53 | 1006.8 |
| 20260507171533 | 18 | 120 | 9.7 | 17.7 | 0.00 | 0.00 | 0.00 | 51 | 1008.5 |
| 20260507171024 | 18 | 69 | 11.3 | 17.7 | 0.00 | 0.00 | 0.00 | 53 | 1008.4 |
| 20260507170559 | 18 | 74 | 12.9 | 17.7 | 0.00 | 0.00 | 0.00 | 53 | 1008.4 |
| 20260507170046 | 18 | 56 | 9.7 | 16.1 | 0.00 | 0.00 | 0.00 | 52 | 1008.4 |
| 20260507165558 | 18 | 53 | 9.7 | 17.7 | 0.00 | 0.00 | 0.00 | 50 | 1008.4 |
| 20260507165044 | 19 | 67 | 9.7 | 17.7 | 0.00 | 0.00 | 0.00 | 48 | 1008.3 |
| 20260507164628 | 19 | 76 | 8.0 | 17.7 | 0.00 | 0.00 | 0.00 | 47 | 1006.7 |
| 20260507164041 | 19 | 114 | 6.4 | 17.7 | 0.00 | 0.00 | 0.00 | 46 | 1008.3 |
| 20260507163523 | 19 | 148 | 8.0 | 19.3 | 0.00 | 0.00 | 0.00 | 45 | 1008.2 |
| 20260507163022 | 20 | 121 | 9.7 | 19.3 | 0.00 | 0.00 | 0.00 | 44 | 1008.2 |
| 20260507162114 | 20 | 107 | 9.7 | 14.5 | 0.00 | 0.00 | 0.00 | 41 | 1006.6 |
| 20260507161629 | 21 | 141 | 4.8 | 12.9 | 0.00 | 0.00 | 0.00 | 40 | 1006.5 |
| 20260507161043 | 21 | 57 | 1.6 | 9.7 | 0.00 | 0.00 | 0.00 | 37 | 1008.2 |
| 20260507160055 | 21 | 290 | 1.6 | 16.1 | 0.00 | 0.00 | 0.00 | 37 | 1008.2 |
| 20260507155609 | 21 | 292 | 1.6 | 16.1 | 0.00 | 0.00 | 0.00 | 38 | 1006.4 |
| 20260507155042 | 21 | 265 | 1.6 | 17.7 | 0.00 | 0.00 | 0.00 | 39 | 1008.1 |
| 20260507154522 | 20 | 250 | 12.9 | 17.7 | 0.00 | 0.00 | 0.00 | 38 | 1008.1 |
| 20260507154022 | 21 | 265 | 1.6 | 17.7 | 0.00 | 0.00 | 0.00 | 38 | 1008.1 |
| 20260507153544 | 20 | 223 | 3.2 | 19.3 | 0.00 | 0.00 | 0.00 | 40 | 1008.1 |
| 20260507153028 | 20 | 216 | 4.8 | 19.3 | 0.00 | 0.00 | 0.00 | 39 | 1008.2 |
| 20260507152533 | 20 | 262 | 14.5 | 24.1 | 0.00 | 0.00 | 0.00 | 38 | 1008.3 |
| 20260507152021 | 20 | 277 | 11.3 | 19.3 | 0.00 | 0.00 | 0.00 | 38 | 1008.3 |
| 20260507151531 | 20 | 211 | 3.2 | 12.9 | 0.00 | 0.00 | 0.00 | 39 | 1008.4 |
| 20260507151026 | 20 | 247 | 0.0 | 14.5 | 0.00 | 0.00 | 0.00 | 40 | 1008.4 |
| 20260507150521 | 20 | 231 | 9.7 | 17.7 | 0.00 | 0.00 | 0.00 | 39 | 1008.4 |
| 20260507150107 | 20 | 249 | 12.9 | 17.7 | 0.00 | 0.00 | 0.00 | 38 | 1008.4 |
| 20260507145532 | 20 | 260 | 4.8 | 11.3 | 0.00 | 0.00 | 0.00 | 38 | 1008.3 |
| 20260507145028 | 20 | 231 | 8.0 | 19.3 | 0.00 | 0.00 | 0.00 | 37 | 1008.4 |
| 20260507144532 | 20 | 234 | 8.0 | 19.3 | 0.00 | 0.00 | 0.00 | 37 | 1008.5 |
| 20260507144123 | 20 | 310 | 12.9 | 16.1 | 0.00 | 0.00 | 0.00 | 37 | 1006.9 |
| 20260507143604 | 20 | 198 | 8.0 | 16.1 | 0.00 | 0.00 | 0.00 | 37 | 1008.6 |
| 20260507143043 | 20 | 267 | 11.3 | 16.1 | 0.00 | 0.00 | 0.00 | 37 | 1008.7 |
| 20260507142535 | 20 | 123 | 0.0 | 16.1 | 0.00 | 0.00 | 0.00 | 38 | 1008.8 |
| 20260507142022 | 20 | 214 | 8.0 | 20.9 | 0.00 | 0.00 | 0.00 | 36 | 1008.8 |
| 20260507141525 | 20 | 285 | 11.3 | 20.9 | 0.00 | 0.00 | 0.00 | 34 | 1008.9 |
| 20260507141028 | 21 | 224 | 14.5 | 19.3 | 0.00 | 0.00 | 0.00 | 34 | 1008.9 |
| 20260507140544 | 21 | 159 | 8.0 | 20.9 | 0.00 | 0.00 | 0.00 | 36 | 1008.8 |
| 20260507140101 | 21 | 229 | 8.0 | 20.9 | 0.00 | 0.00 | 0.00 | 37 | 1008.9 |
| 20260507135604 | 20 | 127 | 11.3 | 24.1 | 0.00 | 0.00 | 0.00 | 36 | 1007.4 |
| 20260507134537 | 20 | 281 | 3.2 | 24.1 | 0.00 | 0.00 | 0.00 | 39 | 1009.0 |
| 20260507134119 | 20 | 224 | 16.1 | 24.1 | 0.00 | 0.00 | 0.00 | 38 | 1007.5 |
| 20260507133529 | 19 | 326 | 4.8 | 17.7 | 0.00 | 0.00 | 0.00 | 40 | 1009.0 |
| 20260507133019 | 19 | 222 | 8.0 | 17.7 | 0.00 | 0.00 | 0.00 | 41 | 1009.1 |
| 20260507132043 | 20 | 229 | 1.6 | 14.5 | 0.00 | 0.00 | 0.00 | 40 | 1009.2 |
| 20260507131539 | 20 | 125 | 9.7 | 17.7 | 0.00 | 0.00 | 0.00 | 41 | 1009.4 |
| 20260507131027 | 18 | 184 | 12.9 | 17.7 | 0.00 | 0.00 | 0.00 | 43 | 1009.5 |
| 20260507130534 | 18 | 262 | 9.7 | 14.5 | 0.00 | 0.00 | 0.00 | 44 | 1009.4 |
| 20260507130106 | 18 | 288 | 8.0 | 20.9 | 0.00 | 0.00 | 0.00 | 44 | 1009.3 |